Hourly Data Report for September 16, 2017

All times are specified in Local Standard Time (LST). Add 1 hour to adjust for Daylight Saving Time where and when it is observed.

RANKIN INLET A
NUNAVUT

62°48'38.000" N
92°06'53.000" W
32.30 m
2303405
71083
YRT

Download Data

Hourly Data (September 2017)
Hourly Data Report for September 16, 2017
Temp Definition
°C
Dew Point Temp Definition
°C
Rel Hum Definition
%
Wind Dir Definition
10's deg

Wind Spd Definition
km/h
Visibility Definition
km
Stn Press Definition
kPa
Hmdx Definition


Wind Chill Definition


Weather Definition


TIME
00:00 Legend Double Dagger 7.6 7.0 95 27 25 9.7 101.02     Rain,Fog
01:00 Legend Double Dagger 7.6 7.0 96 28 20 9.7 101.02     Rain,Fog
02:00 Legend Double Dagger 7.5 6.9 96 28 19 9.7 101.05     Rain,Fog
03:00 Legend Double Dagger 7.5 7.2 98 29 20 8.1 101.08     Rain,Fog
04:00 Legend Double Dagger 7.6 7.3 98 29 19 6.4 101.12     Fog
05:00 Legend Double Dagger 7.8 7.6 99 31 21 1.6 101.19     Fog
06:00 Legend Double Dagger 7.5 7.0 97 33 24 12.9 101.24     Cloudy
07:00 Legend Double Dagger 7.5 6.9 96 33 27 16.1 101.32     LegendNANA
08:00 Legend Double Dagger 7.5 7.0 97 33 26 16.1 101.34     LegendNANA
09:00 Legend Double Dagger 7.7 7.1 96 34 29 16.1 101.39     Cloudy
10:00 Legend Double Dagger 8.4 7.3 93 33 26 16.1 101.44     LegendNANA
11:00 Legend Double Dagger 8.2 7.5 95 34 25 12.9 101.49     LegendNANA
12:00 Legend Double Dagger 8.7 7.7 93 33 21 16.1 101.55     Cloudy
13:00 Legend Double Dagger 9.0 8.1 94 33 18 12.9 101.59     Fog
14:00 Legend Double Dagger 9.7 8.1 90 32 13 24.1 101.62     LegendNANA
15:00 Legend Double Dagger 10.8 6.4 75 33 18 24.1 101.63     Mostly Cloudy
16:00 Legend Double Dagger 11.7 6.0 67 34 17 24.1 101.67     LegendNANA
17:00 Legend Double Dagger 10.3 5.9 74 36 15 24.1 101.68     LegendNANA
18:00 Legend Double Dagger 9.9 5.3 73 4 8 24.1 101.72     Mostly Cloudy
19:00 Legend Double Dagger 8.0 5.1 82 13 7 24.1 101.76     LegendNANA
20:00 Legend Double Dagger 5.8 5.2 96 9 6 24.1 101.78     LegendNANA
21:00 Legend Double Dagger 5.7 5.4 98 12 8 24.1 101.79     Mainly Clear
22:00 Legend Double Dagger 5.5 5.3 99 11 10 1.6 101.81     Fog
23:00 Legend Double Dagger 5.8 5.7 99 13 12 0.8 101.83     Fog

Notes on Data Quality.

Legend

  • E = Estimated
  • M = Missing
  • NA = Not Available
  • ‡ = Partner data that is not subject to review by the National Climate Archives
Date modified: